{"data":{"norad_id":43160,"epoch":"2026-09-20T04:28:43.815072Z","epoch_age_seconds":78691,"freshness":"FRESH","line1":"1 43160U 18008F   26263.18661823  .00004401  00000+0  13286-3 0  9996","line2":"2 43160  97.1804 279.8614 0008139  93.0283 267.1892 15.34745746479515","mean_motion":15.34745746,"eccentricity":0.0008139,"inclination_deg":97.1804,"raan_deg":279.8614,"arg_perigee_deg":93.0283,"mean_anomaly_deg":267.1892,"bstar":0.00013286,"rev_number":47951,"period_min":93.826616151442,"perigee_km":456.10887951633,"apogee_km":467.24272679731,"semimajor_km":6839.8128031568,"source":"CELESTRAK","updated_at":"2026-09-20T09:00:14.303745Z"}}